sat.trackr.live / text

‹ back to catalog

YAOGAN-14

NORAD 38257 · 2012-021A

PAYLOAD ACTIVE UNKNOWN

§ Identity

Operator
Country
PRC
Launch date
2012-05-10
Launch site
TAISC
Launch vehicle
Mass (kg)
RCS (m²)
5.41

External: N2YO · Heavens-Above · Gunter

§ Orbital elements

Epoch: 2026-09-13T05:15:00.490752Z

Period
94.19 min
Inclination
97.3152°
Eccentricity
0.0003760
Mean motion
15.28813617 rev/d
Perigee alt
476.8 km
Apogee alt
481.9 km
Semi-major
6,857.5 km
B*
2.0046e-4
RAAN
31.8431°
Arg perigee
216.4400°
Mean anomaly
143.6585°
Rev number
79,926

§ Raw data

YAOGAN-141 38257U 12021A   26256.21875568  .00005540  00000+0  20046-3 0  99922 38257  97.3152  31.8431 0003760 216.4400 143.6585 15.28813617799264

JSON: /api/v1/satellites/38257 · /tle

For live sub-satellite position, see the globe view (requires WebGL).

§ Visibility from observer

Set your observer location to see the next 7 days of passes ≥ 10°. The values pass through the URL so the page stays shareable.

No JS? Fill the form by hand. The geolocation button needs JavaScript.